Portada
METAR-TAF:

METAR-TAF

Aeropuertos :

Kirksville Regional Airport

Kirksville, Misuri, Estados Unidos

latitud: 40-05-50N, longitud: 092-32-36W, altitud: 294 m

Observación

El informe se hizo hace 1 hora y 1 minutos, a las 07:55 UTC
Viento calma
Temperatura 21°C
Humedad 94%
Presión 1016 hPa
Visibilidad: 16.1 km
Cielo despejado

METAR: KIRK 060755Z AUTO 00000KT 10SM CLR 21/20 A3000 RMK AO2 SLP152 T02060200

Hora: 03:56 (08:56 UTC)


TAF: falta

Observaciones y pronósticos meteorológicos de más de 4000 aeropuertos (mensajes METAR y TAF).

Los puntos amarillos y rojos representan las estaciones disponibles.

Ponga el ratón en el punto deseado para ver el nombre de la estación.

Haga clic para ver las observaciones y los pronósticos meteorológicos.

Para cambiar el mapa : haga clic en los botones verdes con una cruz de color negro para hacer un zoom, en el botón verde con un guión para alejar o en las flechas verdes para mapas adyacentes.


METAR-TAF: